TimePDT,TemperatureF,Dew PointF,Humidity,Sea Level PressureIn,VisibilityMPH,Wind Direction,Wind SpeedMPH,Gust SpeedMPH,PrecipitationIn,Events,Conditions,WindDirDegrees,DateUTC
12:00 AM,42.8,17.6,36,30.35,4.0,Calm,Calm,-,N/A,,Haze,0,2012-10-06 07:00:00
12:55 AM,38.7,16.5,41,30.35,6.0,Calm,Calm,-,N/A,,Haze,0,2012-10-06 07:55:00
12:59 AM,39.2,17.6,42,30.35,5.0,NE,3.5,-,N/A,,Haze,40,2012-10-06 07:59:00
1:03 AM,39.2,17.6,42,30.35,4.0,NNE,3.5,-,N/A,,Haze,30,2012-10-06 08:03:00
1:35 AM,41.0,19.4,42,30.35,7.0,NNE,5.8,-,N/A,,Clear,20,2012-10-06 08:35:00
1:41 AM,41.0,19.4,42,30.35,7.0,NNE,5.8,-,N/A,,Clear,30,2012-10-06 08:41:00
1:55 AM,40.1,19.6,44,30.35,10.0,NE,5.8,-,N/A,,Clear,40,2012-10-06 08:55:00
2:26 AM,39.2,19.4,45,30.35,5.0,North,4.6,-,N/A,,Haze,350,2012-10-06 09:26:00
2:30 AM,37.4,19.4,48,30.35,5.0,NNW,3.5,-,N/A,,Clear,330,2012-10-06 09:30:00
2:44 AM,33.8,17.6,52,30.36,3.0,NNW,4.6,-,N/A,,Clear,340,2012-10-06 09:44:00
2:55 AM,32.7,17.6,54,30.37,3.0,North,3.5,-,0.00,,Clear,360,2012-10-06 09:55:00
3:03 AM,33.8,17.6,52,30.37,3.0,Calm,Calm,-,N/A,,Haze,0,2012-10-06 10:03:00
3:05 AM,33.8,17.6,52,30.37,4.0,Calm,Calm,-,N/A,,Haze,0,2012-10-06 10:05:00
3:55 AM,34.3,19.2,54,30.35,10.0,Calm,Calm,-,0.00,,Clear,0,2012-10-06 10:55:00
4:16 AM,35.6,21.2,56,30.35,8.0,NE,3.5,-,N/A,,Clear,50,2012-10-06 11:16:00
4:31 AM,35.6,21.2,56,30.36,7.0,NE,5.8,-,N/A,,Clear,50,2012-10-06 11:31:00
4:55 AM,34.7,21.2,58,30.36,10.0,NE,4.6,-,N/A,,Clear,40,2012-10-06 11:55:00
5:03 AM,33.8,21.2,60,30.35,7.0,NE,5.8,-,N/A,,Clear,40,2012-10-06 12:03:00
5:16 AM,33.8,21.2,60,30.36,6.0,NE,5.8,-,N/A,,Haze,40,2012-10-06 12:16:00
5:25 AM,33.8,23.0,65,30.36,10.0,NE,6.9,-,N/A,,Clear,40,2012-10-06 12:25:00
5:34 AM,33.8,23.0,65,30.36,8.0,NNE,6.9,-,N/A,,Clear,30,2012-10-06 12:34:00
5:36 AM,33.8,23.0,65,30.37,7.0,NNE,6.9,-,N/A,,Clear,30,2012-10-06 12:36:00
5:55 AM,33.4,23.2,66,30.37,6.0,NNE,5.8,-,0.00,,Haze,30,2012-10-06 12:55:00
6:27 AM,33.8,23.0,65,30.38,7.0,NE,4.6,-,N/A,,Clear,40,2012-10-06 13:27:00
6:55 AM,32.9,23.5,68,30.38,3.0,NNE,6.9,-,N/A,,Haze,30,2012-10-06 13:55:00
7:07 AM,32.0,23.0,69,30.38,2.5,NNE,8.1,-,N/A,,Haze,20,2012-10-06 14:07:00
7:23 AM,33.8,23.0,65,30.38,3.0,ENE,4.6,-,N/A,,Clear,70,2012-10-06 14:23:00
7:34 AM,30.2,23.0,75,30.39,10.0,ENE,5.8,-,N/A,,Clear,60,2012-10-06 14:34:00
7:55 AM,30.9,23.4,74,30.40,9.0,NE,4.6,-,0.00,,Clear,50,2012-10-06 14:55:00
8:21 AM,35.6,24.8,65,30.40,7.0,NE,5.8,-,N/A,,Clear,40,2012-10-06 15:21:00
8:23 AM,37.4,24.8,60,30.40,8.0,NE,5.8,-,N/A,,Clear,40,2012-10-06 15:23:00
8:44 AM,39.2,24.8,56,30.40,8.0,NE,8.1,-,N/A,,Clear,40,2012-10-06 15:44:00
8:54 AM,39.2,23.0,52,30.40,10.0,NE,8.1,-,N/A,,Clear,40,2012-10-06 15:54:00
9:55 AM,46.0,25.5,45,30.38,10.0,NE,9.2,-,N/A,,Clear,50,2012-10-06 16:55:00
10:55 AM,50.4,25.2,37,30.37,5.0,NNE,8.1,-,N/A,,Haze,30,2012-10-06 17:55:00
11:55 AM,54.0,23.4,30,30.36,4.0,NE,6.9,-,N/A,,Haze,40,2012-10-06 18:55:00
12:55 PM,56.5,20.3,24,30.33,3.0,North,5.8,-,N/A,,Haze,350,2012-10-06 19:55:00
12:57 PM,57.2,21.2,25,30.33,2.5,North,3.5,-,N/A,,Haze,350,2012-10-06 19:57:00
1:01 PM,57.2,21.2,25,30.33,3.0,NNE,3.5,-,N/A,,Haze,30,2012-10-06 20:01:00
1:55 PM,58.3,20.7,23,30.32,8.0,Variable,6.9,-,N/A,,Clear,0,2012-10-06 20:55:00
2:55 PM,59.0,20.7,23,30.30,10.0,Variable,4.6,-,N/A,,Clear,0,2012-10-06 21:55:00
3:55 PM,60.3,21.6,23,30.28,4.0,NNW,4.6,-,N/A,,Haze,330,2012-10-06 22:55:00
4:55 PM,59.9,20.1,22,30.27,10.0,NNE,4.6,-,N/A,,Clear,30,2012-10-06 23:55:00
5:55 PM,57.4,20.1,24,30.26,10.0,ENE,3.5,-,N/A,,Clear,60,2012-10-07 00:55:00
6:55 PM,55.0,21.0,27,30.27,10.0,Calm,Calm,-,N/A,,Clear,0,2012-10-07 01:55:00
7:55 PM,50.7,19.8,30,30.27,10.0,Calm,Calm,-,N/A,,Clear,0,2012-10-07 02:55:00
8:55 PM,48.0,25.2,41,30.25,10.0,SSW,4.6,-,N/A,,Clear,200,2012-10-07 03:55:00
9:55 PM,41.2,18.9,41,30.25,10.0,WSW,4.6,-,N/A,,Clear,240,2012-10-07 04:55:00
10:31 PM,41.0,17.6,39,30.24,10.0,SW,4.6,-,N/A,,Clear,230,2012-10-07 05:31:00
10:41 PM,39.2,15.8,39,30.24,10.0,West,5.8,-,N/A,,Clear,260,2012-10-07 05:41:00
10:55 PM,41.7,17.6,38,30.23,10.0,West,3.5,-,0.00,,Clear,270,2012-10-07 05:55:00
11:55 PM,39.0,16.2,40,30.23,10.0,WNW,3.5,-,N/A,,Clear,300,2012-10-07 06:55:00